Flag for Canada Weather past 2 weeks in Regina, Saskatchewan, Canada

Now
75 °F

Scattered clouds.


Feels Like: 77 °F
Forecast: N/A
Wind: 17 mph from North

Location: Regina Weather Station

Current Time: Aug 2, 2015 at 2:56:44 PM

Latest Report: Aug 2, 2015 at 2:00 PM


Visibility: 15 mi

Pressure: 30.02 "Hg (28.10 "Hg at 577m altitude)

Humidity: 36%

Dew point: 46 °F

Location of ReginaLocation

Historic Weather in Regina — Graph

°F

Regina temperature yesterday

Maximum temperature yesterday: 84 °F (at 12:00 PM)
Minimum temperature yesterday: 54 °F (at 12:00 AM)
Average temperature yesterday: 68 °F

Past Weeks' High & Low Weather Summary

 TemperatureHumidityPressure
High90 °F (Jul 25, 4:00 PM)100% (Jul 20, 3:00 AM)30.19 "Hg (Jul 20, 3:00 AM)
Low48 °F (Jul 20, 3:00 AM)25% (Jul 25, 5:00 PM)29.27 "Hg (Jul 28, 11:00 AM)
Average67 °F70%29.86 "Hg
* Reported Jul 18 1:00 PM — Aug 2 1:00 PM, Regina, Weather by CustomWeather, © 2015

Note: Actual official high and low records may vary slightly from our data, if they occured in-between our weather recording intervals... More about our weather records

Advertising

Regina weather history for previous 24 hours

 ConditionsComfort  
Time TempWeatherWind HumidityBarometerVisibility
1:00 PM
Sun, Aug 2
73 °FScattered clouds.12 mph47%30.02 "Hg15 mi
12:00 PM73 °FScattered clouds.13 mph47%30.03 "Hg15 mi
11:00 AM73 °FScattered clouds.9 mph47%30.03 "Hg15 mi
10:00 AM70 °FPassing clouds.8 mph60%30.03 "Hg15 mi
9:00 AM64 °FPassing clouds.9 mph73%30.03 "Hg15 mi
8:00 AM61 °FPassing clouds.13 mph83%30.01 "Hg15 mi
7:00 AM57 °FPassing clouds.12 mph94%30.00 "Hg15 mi
6:00 AM52 °FScattered clouds.7 mph100%30.00 "Hg12 mi
5:00 AM52 °FPassing clouds.7 mph100%29.97 "Hg15 mi
4:00 AM54 °FClear.10 mph100%29.95 "Hg15 mi
3:00 AM55 °FClear.10 mph94%29.93 "Hg15 mi
2:00 AM54 °FClear.7 mph100%29.92 "Hg15 mi
1:00 AM55 °FClear.7 mph94%29.90 "Hg15 mi
12:00 AM57 °FClear.9 mph94%29.89 "Hg15 mi
11:00 PM
Sat, Aug 1
59 °FClear.12 mph88%29.88 "Hg15 mi
10:00 PM57 °FClear.7 mph88%29.89 "Hg15 mi
9:00 PM63 °FPassing clouds.9 mph77%29.88 "Hg15 mi
8:00 PM72 °FPassing clouds.10 mph53%29.87 "Hg15 mi
7:00 PM75 °FPassing clouds.12 mph47%29.85 "Hg15 mi
6:00 PM77 °FPassing clouds.21 mph47%29.85 "Hg15 mi
5:00 PM79 °FPassing clouds.23 mph42%29.84 "Hg15 mi
4:00 PM81 °FBroken clouds.20 mph39%29.83 "Hg15 mi
3:00 PM84 °FPassing clouds.16 mph43%29.81 "Hg15 mi
2:00 PM84 °FPassing clouds.7 mph40%29.80 "Hg15 mi
Weather by CustomWeather, © 2015

See weather overviewHow to use our weather pages